Location: Austin
(30.3000°N, 97.7500°W)
Time: 07:00:44
(UTC-05:00)

Cosmos 1500 Rocket - Pass Details

Date: 11 June 2024
Orbit: 599 x 628 km, 82.5° (Epoch: 22 June)

Event Time Altitude Azimuth Distance (km) Brightness Sun altitude
Rises 21:13:36 0° 348° (NNW) 2,855 7.7 -8.4°
Reaches altitude 10° 21:15:51 10° 344° (NNW) 1,952 6.9 -8.8°
Maximum altitude 21:20:03 55° 267° (W) 731 4.3 -9.5°
Drops below altitude 10° 21:24:17 10° 189° (S) 1,957 5.9 -10.3°
Sets 21:26:32 0° 185° (S) 2,862 6.7 -10.7°
